This demonstration page uses our WeatherBlox Daily Observations layout. Learn more.

40.92945, -100.16068

Hourly Observations for September 22, 2018

Temp ( °F °C ) Dew Point ( °F °C ) Humidity (%) Winds ( mph kmh ) Pressure ( in mb ) Visibility ( mi km ) Precip ( " mm )
12:15 am 00:15 Clear 49 9.4 42 5.3 76 76 SE 5 7 30.36 1028 10 16.0934 0 0
12:35 am 00:35 Clear 49 9.3 42 5.5 77 77 ESE 7 11 30.36 1028 10 16.0934 0 0
12:55 am 00:55 Clear 48 8.7 41 5.2 79 79 ESE 5 7 30.36 1028 10 16.0934 0 0
1:15 am 01:15 Clear 48 9 42 5.7 80 80 SE 6 9 30.36 1028 10 16.0934 0 0
1:35 am 01:35 Clear 47 8.1 42 5.5 84 84 SSE 5 7 30.36 1028 10 16.0934 0 0
1:55 am 01:55 Clear 47 8.5 42 5.8 83 83 SE 6 9 30.36 1028 10 16.0934 0 0
2:15 am 02:15 Clear 46 8 42 5.6 85 85 SSE 3 6 30.33 1027 10 16.0934 0 0
2:35 am 02:35 Clear 47 8.1 42 5.5 84 84 SE 6 9 30.33 1027 10 16.0934 0 0
2:55 am 02:55 Clear 47 8.5 42 5.7 83 83 SE 7 11 30.33 1027 10 16.0934 0 0
3:15 am 03:15 Clear 48 8.7 42 5.6 81 81 SE 6 9 30.33 1027 10 16.0934 0 0
3:35 am 03:35 Clear 47 8.5 42 5.6 82 82 SE 6 9 30.33 1027 10 16.0934 0 0
3:55 am 03:55 Clear 46 8 42 5.5 84 84 SE 6 9 30.33 1027 10 16.0934 0 0
4:15 am 04:15 Clear 46 7.6 41 5.2 85 85 SSE 6 9 30.3 1026 10 16.0934 0 0
4:35 am 04:35 Clear 46 7.7 42 5.5 86 86 SSE 7 11 30.3 1026 10 16.0934 0 0
4:55 am 04:55 Clear 46 7.7 42 5.4 86 86 SSE 7 11 30.3 1026 10 16.0934 0 0
5:15 am 05:15 Clear 45 7.2 41 5 86 86 SE 6 9 30.3 1026 10 16.0934 0 0
5:35 am 05:35 Clear 46 7.5 41 5.1 85 85 SE 6 9 30.3 1026 10 16.0934 0 0
5:55 am 05:55 Clear 45 7.1 41 4.8 85 85 ESE 5 7 30.3 1026 10 16.0934 0 0
6:15 am 06:15 Clear 45 7 40 4.7 85 85 SE 5 7 30.3 1026 10 16.0934 0 0
6:35 am 06:35 Clear 44 6.8 41 4.9 88 88 SE 6 9 30.3 1026 10 16.0934 0 0
6:55 am 06:55 Clear 45 7.1 41 5 87 87 SE 5 7 30.3 1026 10 16.0934 0 0
7:15 am 07:15 Clear 45 7 41 5.1 88 88 SE 6 9 30.27 1025 10 16.0934 0 0
7:35 am 07:35 Sunny 45 7.4 42 5.5 88 88 SSE 7 11 30.27 1025 10 16.0934 0 0
7:55 am 07:55 Sunny 46 7.8 42 5.8 87 87 SSE 7 11 30.27 1025 10 16.0934 0 0
8:15 am 08:15 Sunny 47 8.3 44 6.5 89 89 SSE 6 9 30.27 1025 10 16.0934 0 0
8:35 am 08:35 Sunny 50 9.8 45 7.2 84 84 S 8 13 30.24 1024 10 16.0934 0 0
8:55 am 08:55 Sunny 51 10.7 46 7.6 81 81 S 12 19 30.24 1024 10 16.0934 0 0
9:15 am 09:15 Sunny 53 11.7 46 7.6 76 76 S 14 22 30.24 1024 10 16.0934 0 0
9:35 am 09:35 Sunny 55 12.9 46 7.8 71 71 S 15 24 30.21 1023 10 16.0934 0 0
9:55 am 09:55 Sunny 57 14 46 7.5 65 65 S 21 33 30.21 1023 10 16.0934 0 0
10:15 am 10:15 Sunny 58 14.4 46 7.5 63 63 S 20 31 30.21 1023 10 16.0934 0 0
10:35 am 10:35 Sunny 59 15.2 46 7.8 62 62 S 18 30 30.15 1021 10 16.0934 0 0
10:55 am 10:55 Sunny 61 16.2 46 7.8 58 58 S 16 26 30.18 1022 10 16.0934 0 0
11:15 am 11:15 Sunny 62 16.8 47 8.2 57 57 S 16 26 30.15 1021 10 16.0934 0 0
11:35 am 11:35 Sunny 64 17.8 47 8.3 54 54 S 17 28 30.15 1021 10 16.0934 0 0
11:55 am 11:55 Sunny 65 18.4 47 8.4 52 52 S 16 26 30.12 1020 10 16.0934 0 0
12:15 pm 12:15 Sunny 67 19.2 47 8.6 50 50 SSE 17 28 30.09 1019 10 16.0934 0 0
12:35 pm 12:35 Sunny 69 20.4 47 8.2 46 46 S 17 28 30.09 1019 10 16.0934 0 0
12:55 pm 12:55 Sunny 69 20.8 46 8 44 44 S 18 30 30.09 1019 10 16.0934 0 0
1:15 pm 13:15 Sunny 71 21.6 47 8.1 42 42 S 20 31 30.03 1017 10 16.0934 0 0
1:35 pm 13:35 Sunny 72 22.3 45 7.4 38 38 S 17 28 30 1016 10 16.0934 0 0
1:55 pm 13:55 Sunny 74 23.1 45 7.2 36 36 S 18 30 30 1016 10 16.0934 0 0
2:15 pm 14:15 Sunny 74 23.4 45 7 35 35 SSE 17 28 30 1016 10 16.0934 0 0
2:35 pm 14:35 Sunny 76 24.4 43 6 31 31 S 20 31 29.94 1014 10 16.0934 0 0
2:55 pm 14:55 Sunny 76 24.3 43 6 31 31 S 20 31 29.94 1014 10 16.0934 0 0
3:15 pm 15:15 Sunny 77 24.9 42 5.8 29 29 S 18 30 29.94 1014 10 16.0934 0 0
3:35 pm 15:35 Sunny 77 25.1 44 6.5 30 30 SSE 20 31 29.91 1013 10 16.0934 0 0
3:55 pm 15:55 Sunny 77 25.2 43 6 29 29 S 20 31 29.91 1013 10 16.0934 0 0
4:15 pm 16:15 Sunny 77 25.1 43 6 29 29 S 21 33 29.91 1013 10 16.0934 0 0
4:35 pm 16:35 Sunny 77 25.2 43 6.2 30 30 S 20 31 29.91 1013 10 16.0934 0 0
4:55 pm 16:55 Sunny 78 25.5 44 6.4 29 29 S 20 31 29.91 1013 10 16.0934 0 0
5:15 pm 17:15 Sunny 77 25 44 6.5 31 31 S 17 28 29.91 1013 10 16.0934 0 0
5:35 pm 17:35 Sunny 77 24.8 44 6.6 31 31 S 17 28 29.91 1013 10 16.0934 0 0
5:55 pm 17:55 Sunny 76 24.5 44 6.6 32 32 S 16 26 29.91 1013 10 16.0934 0 0
6:15 pm 18:15 Sunny 75 24 44 6.8 33 33 S 15 24 29.91 1013 10 16.0934 0 0
6:35 pm 18:35 Sunny 74 23.3 44 6.9 35 35 S 17 28 29.94 1014 10 16.0934 0 0
6:55 pm 18:55 Sunny 73 22.6 45 7.3 37 37 S 17 28 29.94 1014 10 16.0934 0 0
7:15 pm 19:15 Sunny 70 21.3 46 7.6 41 41 SSE 15 24 29.94 1014 10 16.0934 0 0
7:35 pm 19:35 Sunny 69 20.4 46 7.6 44 44 SSE 13 20 29.94 1014 10 16.0934 0 0
7:55 pm 19:55 Clear 66 18.9 46 8 49 49 SSE 8 13 29.97 1015 10 16.0934 0 0
8:15 pm 20:15 Clear 64 17.7 47 8.5 55 55 SSE 9 15 29.97 1015 10 16.0934 0 0
8:35 pm 20:35 Clear 64 17.5 47 8.3 55 55 SSE 13 20 29.97 1015 10 16.0934 0 0
8:55 pm 20:55 Clear 63 17.1 47 8.1 56 56 SSE 13 20 29.97 1015 10 16.0934 0 0
9:15 pm 21:15 Clear 62 16.8 47 8.2 57 57 SSE 13 20 29.97 1015 10 16.0934 0 0
9:35 pm 21:35 Clear 62 16.5 47 8.3 59 59 SSE 12 19 30 1016 10 16.0934 0 0
9:55 pm 21:55 Clear 61 16 47 8.1 60 60 SSE 9 15 30 1016 10 16.0934 0 0
10:15 pm 22:15 Clear 60 15.6 47 8.2 62 62 SSE 12 19 30 1016 10 16.0934 0 0
10:35 pm 22:35 Clear 60 15.3 47 8.1 62 62 SSE 9 15 30 1016 10 16.0934 0 0
10:55 pm 22:55 Clear 60 15.3 46 8 62 62 SSE 8 13 30 1016 10 16.0934 0 0
11:15 pm 23:15 Clear 61 16 46 8 59 59 S 12 19 30 1016 10 16.0934 0 0
11:35 pm 23:35 Clear 60 15.8 47 8.1 60 60 S 12 19 30 1016 10 16.0934 0 0
11:55 pm 23:55 Clear 59 15.2 47 8.3 64 64 S 12 19 30 1016 10 16.0934 0 0

Powered by AerisWeather